TimeEDT,TemperatureF,Dew PointF,Humidity,Sea Level PressureIn,VisibilityMPH,Wind Direction,Wind SpeedMPH,Gust SpeedMPH,PrecipitationIn,Events,Conditions,WindDirDegrees,DateUTC
12:52 AM,57.9,41.0,53,29.94,10.0,NW,10.4,-,N/A,,Clear,320,2012-10-21 04:52:00
1:52 AM,57.0,39.9,53,29.95,10.0,NW,12.7,-,N/A,,Clear,310,2012-10-21 05:52:00
2:52 AM,55.9,41.0,57,29.96,10.0,NW,9.2,-,N/A,,Clear,310,2012-10-21 06:52:00
3:52 AM,54.0,41.0,62,29.97,10.0,West,9.2,-,N/A,,Clear,280,2012-10-21 07:52:00
4:52 AM,52.0,39.9,63,29.98,10.0,West,6.9,-,N/A,,Clear,260,2012-10-21 08:52:00
5:52 AM,54.0,41.0,62,30.01,10.0,WNW,11.5,-,N/A,,Clear,300,2012-10-21 09:52:00
6:06 AM,55.4,41.0,58,30.01,10.0,NW,13.8,-,N/A,,Clear,310,2012-10-21 10:06:00
6:52 AM,54.0,41.0,62,30.04,10.0,NW,15.0,-,N/A,,Partly Cloudy,310,2012-10-21 10:52:00
7:52 AM,53.1,41.0,64,30.06,10.0,West,8.1,-,N/A,,Clear,280,2012-10-21 11:52:00
8:52 AM,57.0,41.0,55,30.10,10.0,NW,13.8,-,N/A,,Clear,310,2012-10-21 12:52:00
9:52 AM,59.0,41.0,51,30.10,10.0,NW,11.5,-,N/A,,Clear,310,2012-10-21 13:52:00
10:52 AM,60.1,41.0,49,30.11,10.0,WNW,10.4,-,N/A,,Clear,290,2012-10-21 14:52:00
11:52 AM,62.1,39.9,44,30.10,10.0,WNW,11.5,-,N/A,,Clear,290,2012-10-21 15:52:00
12:52 PM,64.0,39.9,41,30.09,10.0,WNW,10.4,-,N/A,,Partly Cloudy,290,2012-10-21 16:52:00
1:52 PM,66.0,37.9,36,30.07,10.0,NNW,8.1,-,N/A,,Scattered Clouds,340,2012-10-21 17:52:00
2:52 PM,64.0,39.0,40,30.05,10.0,NW,10.4,-,N/A,,Mostly Cloudy,310,2012-10-21 18:52:00
3:52 PM,66.0,37.9,36,30.05,10.0,NW,6.9,-,N/A,,Scattered Clouds,310,2012-10-21 19:52:00
4:52 PM,64.0,37.0,37,30.06,10.0,West,8.1,-,N/A,,Partly Cloudy,280,2012-10-21 20:52:00
5:52 PM,63.0,37.9,40,30.06,10.0,West,8.1,-,N/A,,Partly Cloudy,280,2012-10-21 21:52:00
6:52 PM,57.9,37.9,47,30.09,10.0,West,6.9,-,N/A,,Clear,260,2012-10-21 22:52:00
7:52 PM,55.0,39.9,57,30.09,10.0,Calm,Calm,-,N/A,,Clear,0,2012-10-21 23:52:00
8:52 PM,48.9,41.0,74,30.11,10.0,SW,3.5,-,N/A,,Clear,220,2012-10-22 00:52:00
9:52 PM,46.9,41.0,80,30.12,10.0,WSW,4.6,-,N/A,,Clear,240,2012-10-22 01:52:00
10:52 PM,46.9,41.0,80,30.14,10.0,WSW,5.8,-,N/A,,Clear,250,2012-10-22 02:52:00
11:52 PM,46.9,39.9,77,30.14,10.0,West,5.8,-,N/A,,Clear,270,2012-10-22 03:52:00